Terminal Aerodrome Forecast
Issued by NWS King Salmon, AK

Home | Current Version | Previous Version | Text Only | Print | Product List | Glossary On
Versions: 1 2 3 4 5 6 7 8 9 10 11 12 13 14 15 16 17 18 19 20 21 22 23 24 25 26 27 28 29 30 31 32 33 34 35 36 37 38 39 40 41 42
000
FTAK31 PANC 011121
TAFAKN
TAF
PAKN 011121Z 0112/0212 15007KT P6SM VCSH SCT025 OVC080
      WS020/14050KT
     FM011400 12020G30KT P6SM -RA BKN025 OVC050
     FM011800 14025G35KT 6SM -RA OVC025
     FM020200 17012G20KT 2SM -SHRA BR BKN008 OVC015=

USA.gov is the U.S. government's official web portal to all federal, state and local government web resources and services.